Location: Censerey
(47.2029°N, 4.3537°E)
Time: 00:58:23
(UTC+00:00)

Daily predictions for brighter satellites

Satellite Brightness Start Highest point End
(mag) Time Altitude Azimuth Time Altitude Azimuth Time Altitude Azimuth
Cosmos 1464 Rocket 3.9 00:08:47 61° SSE 00:09:48 73° E 00:16:00 10° NNE
Cosmos 2333 4.2 00:04:18 10° NNW 00:10:04 68° WSW 00:10:14 67° SW
Cosmos 2219 Rocket 2.1 00:04:54 10° NNW 00:10:38 88° ENE 00:11:13 73° SE
Cosmos 836 Rocket 4.5 00:06:35 10° NNW 00:11:32 68° W 00:11:32 68° W
Lacrosse 4 Rocket 1.9 00:13:01 58° NNE 00:13:01 58° NNE 00:16:28 10° NNE
Cosmos 1782 Rocket 3.9 00:12:54 63° NNE 00:12:54 63° NNE 00:16:37 10° N
Cosmos 1354 Rocket 4.1 00:16:38 65° ESE 00:16:41 65° ESE 00:21:59 10° NNE
Cosmos 2322 Rocket 4.0 00:14:31 10° WNW 00:17:43 18° W 00:17:43 18° W
Cosmos 968 Rocket 3.4 00:19:13 73° W 00:19:22 73° WNW 00:24:31 10° NNE
SL-4 R/B 4.1 00:22:19 16° ENE 00:22:19 16° ENE 00:23:09 10° ENE
Cosmos 1908 Rocket 4.3 00:21:10 44° WNW 00:21:10 44° WNW 00:24:59 10° N
COSMOS 2428 2.6 00:23:00 10° NNW 00:28:45 77° WSW 00:29:11 72° SSW
SL-16 R/B 3.5 00:28:37 23° ESE 00:32:05 43° ENE 00:37:57 10° N
CENTAUR R/B 4.1 00:27:56 10° W 00:33:43 34° NNW 00:40:26 10° NE
Nadezhda 4 Rocket 3.9 00:27:34 10° N 00:33:55 84° E 00:35:18 57° SSE
Cosmos 2360 Rocket 3.6 00:29:37 10° NW 00:33:24 24° W 00:33:24 24° W
CZ-2D R/B 3.4 00:32:03 10° NE 00:36:51 30° E 00:38:05 27° ESE
Cosmos 2034 Rocket 3.9 00:35:41 60° S 00:36:54 83° E 00:43:15 10° N
USA 267 4.4 00:32:57 10° E 00:39:00 42° NNE 00:45:04 10° NW
Okean 2 Rocket 3.3 00:41:46 65° ENE 00:41:46 65° ENE 00:46:02 10° NNE
Meteor 2-9 Rocket 4.2 00:41:29 60° WSW 00:42:09 66° WNW 00:47:48 10° N
GEOS 3 Rocket 3.6 00:36:56 10° NE 00:42:20 67° SE 00:42:46 64° SSE
Cosmos 1975 4.0 00:45:31 36° NW 00:45:31 36° NW 00:48:39 10° N
ADEOS II 4.3 00:42:12 10° NE 00:45:03 15° E 00:47:27 11° ESE
Cosmos 1092 Rocket 4.2 00:39:46 10° N 00:46:02 67° E 00:48:01 43° SE
Cosmos 1975 Rocket 3.9 00:41:57 10° NNW 00:45:36 42° WNW 00:45:36 42° WNW
Cosmos 2297 Rocket 3.1 00:45:36 34° ESE 00:46:23 35° ESE 00:51:28 10° NE
Cosmos 2219 3.8 00:45:50 39° SE 00:46:32 41° ESE 00:51:46 10° NE
Cosmos 1980 3.9 00:42:08 10° NNW 00:47:48 68° ENE 00:49:51 40° SE
PSLV R/B 4.2 00:43:49 10° N 00:48:17 49° WNW 00:48:26 48° WNW
Cosmos 2333 Rocket 2.6 00:42:54 10° NW 00:48:11 45° WSW 00:48:11 45° WSW
Sich 1 Rocket 3.7 00:48:43 65° NW 00:48:43 65° NW 00:52:48 10° N
Helios 1B rocket 2.8 00:45:14 10° N 00:48:49 57° NW 00:48:49 57° NW
Cosmos 1777 Rocket 4.4 00:49:00 47° SE 00:49:32 49° ESE 00:54:38 10° NNE
Meteor 1-29 4.1 00:49:46 10° NNE 00:52:12 43° N 00:52:12 43° N
Cosmos 44 Rocket 3.2 00:50:15 10° NW 00:55:08 74° WSW 00:55:08 74° WSW
Cosmos 783 Rocket 4.5 00:50:14 10° NNW 00:55:25 63° WSW 00:55:27 63° WSW
Cosmos 1503 Rocket 4.4 00:56:39 48° W 00:57:32 54° WNW 01:02:50 10° NNE
Cosmos 1300 Rocket 3.5 00:57:53 80° NNE 00:57:53 80° NNE 01:01:59 10° N
Cosmos 2237 Rocket 2.3 00:52:11 10° NNW 00:57:52 75° ENE 00:59:51 42° SE
DELTA 2 DEB (DPAF) 4.2 01:00:27 65° ESE 01:00:50 70° ENE 01:05:16 10° N
Okean 1 Rocket 4.1 01:01:02 33° ESE 01:01:31 34° E 01:05:29 10° NNE
CZ-4C R/B 4.0 01:04:19 42° ENE 01:04:19 42° ENE 01:07:29 10° N
Spot 1 3.9 01:06:48 83° NNW 01:06:48 83° NNW 01:10:46 10° NNW
Iridium 51 4.4 01:04:26 10° N 01:08:42 82° NE 01:08:42 82° NE
Cosmos 2151 Rocket 3.4 01:12:29 84° WSW 01:12:33 84° W 01:17:00 10° N
Meteor 1-12 Rocket 4.3 01:11:28 54° SSW 01:12:51 76° WNW 01:18:54 10° N
Timation 2 Rocket 3.8 01:14:34 51° SSW 01:16:15 86° WNW 01:22:21 10° NNE
Cosmos 1707 3.9 01:14:19 10° NNW 01:17:05 34° WNW 01:17:05 34° WNW
In-Cosmos 22 4.1 01:12:33 10° NNW 01:18:10 73° W 01:19:15 56° SSW
Meteor 1-15 Rocket 4.3 01:22:53 46° SSE 01:24:35 72° E 01:30:11 10° NNE
Cosmos 1805 3.8 01:24:26 48° ESE 01:24:38 49° E 01:28:25 10° NNE
SJ 16-02 2.8 01:25:10 26° SE 01:26:11 28° E 01:29:59 10° NE
DNEPR-1 R/B 4.2 01:21:01 10° NW 01:27:00 70° NE 01:31:05 15° SE
ERBS 3.4 01:23:53 10° NW 01:27:04 43° NNE 01:30:14 10° ESE
Meteor 2-13 Rocket 4.4 01:26:20 10° NNW 01:32:22 65° W 01:34:11 45° SSW
Cosmos 1538 Rocket 3.9 01:29:43 10° NNW 01:34:51 67° WSW 01:35:51 54° SSW
Cosmos 2227 Rocket 2.2 01:33:34 46° S 01:35:15 71° ESE 01:40:55 10° NNE
Cosmos 1025 Rocket 3.9 01:32:42 10° NNW 01:36:08 34° WNW 01:36:08 34° WNW
MOZ.5/SAFIR/RUBIN 5/SL-8 4.1 01:36:59 48° WSW 01:37:12 48° W 01:41:50 10° NNW
Resurs 1-4 Rocket 2.0 01:32:34 10° NNE 01:37:53 87° WNW 01:39:24 49° SSW
Cosmos 1674 2.6 01:36:18 10° NNW 01:39:47 71° WNW 01:39:47 71° WNW
Cosmos 1733 3.6 01:42:54 50° SE 01:43:25 55° E 01:47:11 10° NNE
NOSS 0 Rocket 4.4 01:38:16 10° NW 01:43:57 38° WSW 01:44:40 37° WSW
ATLAS 3B R/B 4.2 01:41:17 10° W 01:46:55 29° NNW 01:52:40 10° NNE
Cosmos 2279 Rocket 4.0 01:44:46 35° S 01:47:34 81° E 01:53:48 10° N
Cosmos 1461 4.5 01:47:03 24° SE 01:48:07 26° ESE 01:51:52 10° ENE
Cosmos 1536 Rocket 4.4 01:44:45 10° NNW 01:48:26 33° W 01:48:26 33° W
USA 215 3.4 01:42:16 10° ENE 01:48:44 59° SE 01:51:29 35° SSW
Cosmos 2026 Rocket 4.1 01:43:08 10° NNW 01:49:04 57° W 01:51:09 39° SSW
COBE Rocket 3.9 01:47:33 32° SSE 01:49:40 75° ENE 01:54:19 10° N
Lacrosse 4 Rocket 3.9 01:49:19 11° WNW 01:51:34 15° NW 01:53:58 10° N
Cosmos 1634 Rocket 4.1 01:50:26 38° SW 01:52:47 61° WNW 01:58:57 10° N
FALCON 9 DEB 4.4 01:49:55 10° NW 01:53:15 41° NNE 01:56:35 10° E
Cosmos 2219 Rocket 4.0 01:50:35 10° WNW 01:52:54 15° W 01:52:54 15° W
Cosmos 2344 4.4 01:45:54 10° NW 01:55:29 67° WSW 02:08:50 10° SSE
SL-24 R/B 4.4 01:53:41 34° SSE 01:55:49 79° E 02:00:49 10° N
Cosmos 2082 4.0 01:53:29 34° S 01:55:49 60° ESE 02:01:22 10° NNE
SL-4 R/B 1.6 01:58:02 27° WNW 01:59:46 75° NNE 02:03:09 10° ESE
Cosmos 2112 Rocket 4.4 01:55:10 10° NNW 02:00:23 63° ENE 02:05:32 10° SSE
Meteor 1-24 Rocket 3.6 01:59:58 10° N 02:05:31 89° E 02:08:55 23° S
SL-16 R/B 2.1 02:00:46 10° NNW 02:06:31 87° WSW 02:12:12 10° SSE
CBERS-1 4.0 02:01:35 10° NNE 02:06:44 78° ESE 02:09:09 32° S
Meteor 2-5 Rocket 3.7 02:03:36 10° NNW 02:09:13 67° W 02:11:58 30° S
ARIANE 5 R/B 3.4 02:09:09 10° NNE 02:14:09 45° E 02:18:02 16° SSE
H-2A R/B 4.4 02:11:20 10° ESE 02:14:33 22° ENE 02:17:45 10° NNE
Cosmos 1898 Rocket 4.0 02:11:41 25° S 02:14:36 53° ESE 02:19:41 10° NNE
SL-16 R/B 3.1 02:13:42 30° SW 02:15:44 37° W 02:21:32 10° NNW
NPP 4.0 02:10:50 10° N 02:16:04 52° WNW 02:18:22 31° SW
IDEFIX/ARIANE 42P 4.0 02:12:19 10° NNE 02:16:57 32° E 02:21:35 10° SSE
CZ-2D R/B 2.7 02:11:51 10° N 02:17:03 45° WNW 02:19:24 29° WSW
Cosmos 1680 Rocket 3.4 02:12:56 10° NNW 02:18:12 82° WSW 02:22:58 12° SSE
NOSS 3-1 (C) 3.9 02:17:24 24° S 02:20:25 46° ESE 02:26:20 10° NE
USA 267 3.4 02:15:02 10° ESE 02:21:34 78° NNE 02:28:07 10° NW
AQUA 4.2 02:17:58 10° N 02:22:34 50° WNW 02:24:26 32° SW
Cosmos 1544 Rocket 4.2 02:20:01 20° SSE 02:22:56 52° E 02:27:18 10° NNE
Cosmos 1607 3.9 02:18:48 10° NW 02:25:14 68° WSW 02:31:38 10° SSE
ADEOS II 2.0 02:20:08 10° NNE 02:25:25 84° WNW 02:28:23 27° SSW
Cosmos 990 Rocket 4.1 02:23:20 26° S 02:26:15 72° ESE 02:31:26 10° NNE
Cosmos 1766 4.0 02:26:32 33° WSW 02:27:21 37° WNW 02:31:01 10° N
Cosmos 2263 Rocket 3.7 02:24:05 10° SSE 02:28:47 29° ESE 02:33:29 10° NE
IRS-1D 3.5 02:24:14 10° N 02:29:14 66° WNW 02:31:54 28° SW
Meteor 1-22 Rocket 4.1 02:27:12 29° SSW 02:29:56 69° WNW 02:35:15 10° N
Cosmos 2297 Rocket 2.9 02:27:24 24° WSW 02:30:21 42° NW 02:35:44 10° NNE
Cosmos 2219 4.1 02:27:45 22° WSW 02:30:44 37° NW 02:35:56 10° NNE
Okean 1-7 Rocket 3.5 02:27:42 10° NNW 02:32:07 78° W 02:35:04 21° S
IRS-1C 4.1 02:29:39 10° NNE 02:35:02 86° ESE 02:38:42 21° SSW
Cosmos 1626 2.7 02:34:41 10° NNW 02:38:09 37° W 02:38:57 33° WSW
Meteor 1-28 Rocket 3.1 02:36:22 19° S 02:39:01 84° WSW 02:42:52 10° NNW
Cosmos 2266 Rocket 4.0 02:32:41 10° NNW 02:39:04 74° W 02:45:02 11° S
Okean 1 Rocket 4.4 02:38:14 21° W 02:39:30 24° WNW 02:43:04 10° NNW
Cosmos 1655 Rocket 4.1 02:33:46 10° NNW 02:39:53 56° W 02:44:28 18° SSW
Cosmos 2237 Rocket 3.6 02:37:31 10° WNW 02:41:16 18° W 02:41:37 18° WSW
CZ-4B R/B 3.9 02:37:56 10° N 02:42:27 43° WNW 02:44:51 24° SW
Cosmos 1470 2.7 02:41:43 26° SSW 02:43:50 79° W 02:47:50 10° N
Cosmos 1603 4.4 02:40:19 10° NNW 02:46:01 59° ENE 02:51:39 10° SE
SL-08 R/B 3.4 02:43:56 13° S 02:48:22 64° WSW 02:53:19 10° NNW
USA 229 DEB 3.8 02:48:34 18° SSW 02:53:29 69° SE 03:00:18 10° NE
USA 229 3.8 02:48:40 18° SSW 02:53:34 68° ESE 03:00:22 10° NE
Cosmos 2098 Rocket 3.7 02:49:27 10° NNW 02:54:05 54° W 02:59:34 11° S
OPS 8737 4.3 02:57:00 25° SW 02:58:56 83° NW 03:01:57 10° NE
ERBS 3.3 03:00:27 10° WNW 03:03:33 24° SW 03:05:56 10° S
Meteor 2-14 Rocket 4.4 02:57:48 10° N 03:03:55 89° WSW 03:09:59 10° S
NOSS 2-3 (C) 4.3 03:01:07 15° SSW 03:04:25 49° ESE 03:09:12 10° NE
NOSS 3-1 (A) 3.7 03:00:07 15° SSW 03:04:39 58° ESE 03:10:50 10° NE
SJ 16-02 2.4 03:02:10 19° WSW 03:04:41 33° WNW 03:08:42 10° N
CSL-04 DEB 4.2 03:05:56 10° SSE 03:09:52 84° WSW 03:13:49 10° NNW
Cosmos 1809 Rocket 4.5 03:07:07 10° NNW 03:13:08 63° W 03:19:09 10° S
MSX 4.1 03:07:23 10° NNE 03:13:09 68° ESE 03:18:53 10° S
Cosmos 1943 3.4 03:07:39 10° NNW 03:13:18 77° ENE 03:18:55 10° SSE
Cosmos 1455 Rocket 3.9 03:11:32 18° SW 03:14:17 34° WNW 03:18:21 10° N
Cosmos 1626 Rocket 3.5 03:10:09 10° NNW 03:14:26 60° W 03:18:40 10° S
Cosmos 1758 3.9 03:13:25 17° SW 03:16:12 42° WNW 03:20:03 10° N
Resurs 1-4 Rocket 4.0 03:13:58 10° NNW 03:16:57 15° NW 03:19:55 10° W
Spot 4 Rocket 4.0 03:12:35 10° NNE 03:17:46 75° WNW 03:22:54 10° SSW
Meteor 1-21 Rocket 4.1 03:12:39 10° NNW 03:18:14 75° W 03:23:43 10° S
Cosmos 2227 Rocket 3.7 03:15:24 10° W 03:19:52 24° NW 03:24:26 10° N
SeaSat 1 3.0 03:17:07 10° NE 03:22:00 56° ESE 03:26:50 10° SSW
Landsat 5 3.2 03:20:43 10° S 03:24:36 79° WSW 03:28:38 10° NNW
CZ-2C R/B 2.7 03:22:00 10° NNE 03:25:55 83° WNW 03:29:43 10° SSW
Cosmos 1461 3.7 03:23:26 14° WSW 03:27:00 45° NW 03:31:26 10° NNE
CZ-2D R/B 3.7 03:23:31 10° N 03:27:29 50° WNW 03:31:10 11° SW
FALCON 9 DEB 3.3 03:26:59 10° WNW 03:30:23 51° SW 03:33:45 10° SE
Cosmos 2227 4.3 03:24:51 10° SSW 03:30:37 88° WNW 03:36:26 10° NNE
USA 215 3.7 03:25:21 10° NE 03:31:45 58° NNW 03:38:09 10° WSW
ATLAS 3B CENTAUR R/B 4.4 03:27:04 11° WSW 03:32:15 17° SSW 03:36:15 10° SSE
Cosmos 1758 Rocket 3.7 03:28:05 10° N 03:32:25 80° E 03:36:44 10° SSE
ATLAS CENTAUR R/B 3.7 03:29:27 10° SSE 03:32:25 19° ESE 03:35:18 10° ENE
Cosmos 1340 Rocket 3.9 03:29:56 13° SW 03:32:52 28° WNW 03:36:20 10° N
ERS-2 2.1 03:32:16 10° S 03:35:52 63° WSW 03:39:30 10° NNW
Cosmos 724 4.4 03:30:16 10° NW 03:36:08 57° WSW 03:42:05 10° SSE
Cosmos 2228 3.8 03:32:50 10° S 03:37:04 54° E 03:41:22 10° NNE
SL-4 R/B 2.7 03:36:18 10° W 03:39:01 22° SW 03:41:44 10° SSE
Cosmos 1953 2.7 03:35:15 10° SSW 03:39:07 46° WNW 03:43:02 10° N
Cosmos 1726 2.9 03:38:40 10° SW 03:42:04 35° WNW 03:45:29 10° N
Cosmos 1908 3.2 03:40:18 10° S 03:44:12 85° W 03:48:09 10° N
Meteor 1-16 Rocket 4.1 03:40:01 10° SSW 03:45:22 74° WNW 03:50:54 10° N
Cosmos 2285 Rocket 4.2 03:40:52 10° SSW 03:47:09 78° ESE 03:53:28 10° NNE
SL-16 R/B 3.8 03:46:54 10° WNW 03:49:45 14° W 03:52:35 10° SW
H-2A R/B 2.5 03:46:30 10° SSW 03:50:20 37° W 03:54:11 10° NNW
Cosmos 2150 Rocket 4.1 03:46:47 10° SSW 03:51:57 85° ESE 03:57:12 10° NNE
Cosmos 1937 Rocket 4.4 03:47:27 10° SW 03:52:19 35° WNW 03:57:13 10° N
ARIANE 5 R/B 3.7 03:48:38 10° N 03:53:04 29° WNW 03:57:30 10° WSW
Cosmos 1825 Rocket 3.5 03:50:40 10° NNW 03:55:00 76° W 03:59:19 10° S
IDEFIX/ARIANE 42P 3.3 03:51:49 10° N 03:56:36 38° WNW 04:01:22 10° SW
